Sanharo, Brazil
Current Conditions -  °F | °C
As of 2:00 PM on Monday 22 Dec 2014 (Local Time) from SBKG Reporting Station
Scattered Clouds Scattered Clouds  
Wind Chill: 86°   Ceiling: Unl
Heat Index: 87°   Visibility: 6mi
Dew Point: 64°   Wind: 16mph
Humidity: 48%   Direction: 90°E
Pressure: 29.91"   Gusts: NA
Location:  8.36°S, 36.57°W
Report Text: SBKG 221700Z 09014KT 9999 SCT040 30/18 Q1013
Loading
Personal Weather Stations






























Interactive Weather Map New forecast layout! Learn more

10-Day Weather Forecast

Advertisements
Track Severe Weather on mobile